This demonstration page uses our WeatherBlox Daily Observations layout. Learn more.

Left ArrowRight Arrow

36.17497, -115.13722

Hourly Observations for October 6, 2021

Temp ( °F °C ) Dew Point ( °F °C ) Humidity (%) Winds ( mph kmh ) Pressure ( in mb ) Visibility ( mi km ) Precip ( " mm )
12:53 am 00:53 Clear 71 21.7 50 10 47 47 S 5 7 29.97 1015 10 16 0.00 0.00
1:53 am 01:53 Clear 69 20.6 50 10 51 51 SSW 5 7 29.98 1015 10 16 0.00 0.00
2:53 am 02:53 Clear 68 20 50 10 53 53 SSW 3 6 29.98 1015 10 16 0.00 0.00
3:53 am 03:53 Clear 67 19.4 50 10 55 55 Calm 29.98 1015 10 16 0.00 0.00
4:53 am 04:53 Clear 66 18.9 49 9.4 54 54 W 3 6 29.99 1016 10 16 0.00 0.00
5:53 am 05:53 Clear 64 17.8 49 9.4 58 58 Calm 30.01 1016 10 16 0.00 0.00
6:53 am 06:53 Sunny 65 18.3 49 9.4 56 56 Calm 30.01 1016 10 16 0.00 0.00
7:53 am 07:53 Sunny 67 19.4 51 10.6 57 57 Calm 30.02 1017 10 16 0.00 0.00
8:53 am 08:53 Sunny 70 21.1 51 10.6 51 51 E 3 6 30.02 1017 10 16 0.00 0.00
9:53 am 09:53 Sunny 73 22.8 52 11.1 48 48 ESE 6 9 30.02 1017 10 16 0.00 0.00
10:53 am 10:53 Sunny 75 23.9 51 10.6 43 43 E 6 9 30.02 1017 10 16 0.00 0.00
11:53 am 11:53 Sunny 77 25 50 10 39 39 S 6 9 30.00 1016 10 16 0.00 0.00
12:53 pm 12:53 Sunny 79 26.1 49 9.4 35 35 SSE 8 13 29.97 1015 10 16 0.00 0.00
1:53 pm 13:53 Sunny 80 26.7 49 9.4 34 34 SE 6 9 29.94 1014 10 16 0.00 0.00
2:53 pm 14:53 Sunny 82 27.8 48 8.9 31 31 SE 9 15 29.91 1013 10 16 0.00 0.00
3:53 pm 15:53 Sunny 82 27.8 48 8.9 31 31 SSE 7 11 29.90 1013 10 16 0.00 0.00
4:53 pm 16:53 Sunny 83 28.3 47 8.3 28 28 E 8 13 29.89 1012 10 16 0.00 0.00
5:53 pm 17:53 Sunny 82 27.8 46 7.8 28 28 ESE 6 9 29.89 1012 10 16 0.00 0.00
6:53 pm 18:53 Clear 80 26.7 45 7.2 29 29 E 8 13 29.89 1012 10 16 0.00 0.00
7:53 pm 19:53 Clear 78 25.6 43 6.1 29 29 E 6 9 29.90 1012 10 16 0.00 0.00
8:53 pm 20:53 Clear 78 25.6 42 5.6 28 28 ESE 5 7 29.91 1013 10 16 0.00 0.00
9:53 pm 21:53 Clear 75 23.9 42 5.6 31 31 Calm 29.91 1013 10 16 0.00 0.00
10:53 pm 22:53 Mostly Clear 76 24.4 43 6.1 31 31 ENE 6 9 29.91 1013 10 16 0.00 0.00
11:53 pm 23:53 Clear 72 22.2 43 6.1 35 35 SSW 3 6 29.91 1013 10 16 0.00 0.00

Powered by AerisWeather